Retour au catalogue

SL-16 DEB

ActifLEO
NORAD 39862·DEBRIS·🇷🇺 Russia

Lancé Dec 25, 1992 depuis Baikonur Cosmodrome

Loading…

Prochains Passages (prochaines 24 heures)

TLE

PériméSource: Space-Track

Époque: Sep 5, 2026, 11:47 UTC

1 39862U 92093LQ  26248.49127979  .00002043  00000-0  33458-3 0  9996
2 39862  70.8284 187.8198 0066484 298.1592  61.2852 14.70701793640367

Suivez SL-16 DEB en temps réel avec AllMySat

Download on the App Store